TimeEST,TemperatureF,Dew PointF,Humidity,Sea Level PressureIn,VisibilityMPH,Wind Direction,Wind SpeedMPH,Gust SpeedMPH,PrecipitationIn,Events,Conditions,WindDirDegrees,DateUTC
12:53 AM,8.1,3.0,80,30.36,10.0,Calm,Calm,-,N/A,,Overcast,0,2013-01-19 05:53:00
1:53 AM,10.9,6.1,81,30.35,10.0,Calm,Calm,-,N/A,,Overcast,0,2013-01-19 06:53:00
2:53 AM,15.1,9.0,77,30.31,10.0,Calm,Calm,-,N/A,,Overcast,0,2013-01-19 07:53:00
3:53 AM,27.0,10.9,51,30.25,10.0,SW,6.9,18.4,N/A,,Overcast,230,2013-01-19 08:53:00
4:53 AM,28.0,12.0,51,30.21,10.0,SW,8.1,17.3,N/A,,Overcast,230,2013-01-19 09:53:00
5:53 AM,28.9,14.0,54,30.19,10.0,WSW,9.2,27.6,N/A,,Overcast,240,2013-01-19 10:53:00
6:36 AM,28.4,19.4,69,30.17,2.5,SW,9.2,20.7,0.00,Snow,Light Snow,230,2013-01-19 11:36:00
6:53 AM,28.0,19.9,72,30.17,2.5,Variable,5.8,-,0.00,Snow,Light Snow,0,2013-01-19 11:53:00
7:00 AM,28.4,19.4,69,30.17,5.0,WSW,5.8,-,0.00,Snow,Light Snow,240,2013-01-19 12:00:00
7:13 AM,28.4,15.8,59,30.16,10.0,WSW,12.7,19.6,0.00,,Overcast,240,2013-01-19 12:13:00
7:53 AM,30.9,14.0,50,30.16,10.0,SW,13.8,21.9,0.00,,Overcast,220,2013-01-19 12:53:00
8:53 AM,30.9,15.1,52,30.15,10.0,SW,9.2,-,N/A,,Overcast,230,2013-01-19 13:53:00
9:53 AM,32.0,16.0,52,30.13,10.0,WSW,8.1,16.1,N/A,,Overcast,240,2013-01-19 14:53:00
10:53 AM,33.1,18.0,54,30.10,10.0,WSW,8.1,-,N/A,,Overcast,240,2013-01-19 15:53:00
11:53 AM,34.0,18.0,52,30.05,10.0,WSW,5.8,-,N/A,,Overcast,240,2013-01-19 16:53:00
12:53 PM,35.1,19.9,54,30.01,10.0,WSW,3.5,-,0.01,,Overcast,240,2013-01-19 17:53:00
1:53 PM,37.0,21.0,52,29.99,10.0,SW,5.8,-,0.02,,Mostly Cloudy,230,2013-01-19 18:53:00
2:53 PM,37.9,21.0,51,29.99,10.0,Calm,Calm,-,0.02,,Overcast,0,2013-01-19 19:53:00
3:53 PM,35.1,25.0,67,29.97,10.0,Calm,Calm,-,0.02,,Mostly Cloudy,0,2013-01-19 20:53:00
4:53 PM,33.1,25.0,72,29.96,10.0,Calm,Calm,-,N/A,,Overcast,0,2013-01-19 21:53:00
5:53 PM,32.0,24.1,73,29.98,10.0,Calm,Calm,-,N/A,,Overcast,0,2013-01-19 22:53:00
6:53 PM,30.0,25.0,82,29.98,10.0,Calm,Calm,-,N/A,,Clear,0,2013-01-19 23:53:00
7:53 PM,30.0,25.0,82,29.97,10.0,Calm,Calm,-,N/A,,Mostly Cloudy,0,2013-01-20 00:53:00
8:53 PM,30.9,26.1,82,29.97,10.0,Calm,Calm,-,N/A,,Overcast,0,2013-01-20 01:53:00
9:53 PM,32.0,27.0,82,29.95,10.0,Calm,Calm,-,N/A,,Overcast,0,2013-01-20 02:53:00
10:53 PM,32.0,27.0,82,29.92,10.0,Calm,Calm,-,N/A,,Overcast,0,2013-01-20 03:53:00
11:53 PM,32.0,27.0,82,29.88,10.0,Calm,Calm,-,N/A,,Overcast,0,2013-01-20 04:53:00